Skip Page Navigation
NASA JPL Caltech
NASA Logo - Jet Propulsion Laboratory + View the NASA Portal
+ Near-Earth Object (NEO) Program
Search JPL
JPL Home Earth Solar System Stars & Galaxies Technology
JPL Solar System Dynamics
BODIES ORBITS EPHEMERIDES TOOLS PHYSICAL DATA DISCOVERY FAQ SITE MAP
JPL Small-Body Database Browser
Search: [ help ]  
14827 Hypnos (1986 JK)
Classification: Apollo [NEO, PHA]          SPK-ID: 2014827
Ephemeris | Orbit Diagram | Orbital Elements | Physical Parameters | Discovery Circumstances | Close-Approach Data ]

[ hide orbit diagram ]
Orbit Diagram
Note: Make sure you have Java enabled on your browser to see the applet. This applet is provided as a 3D orbit visualization tool. The applet was implemented using 2-body methods, and hence should not be used for determining accurate long-term trajectories (over several years or decades) or planetary encounter circumstances. For accurate long-term ephemerides, please instead use our Horizons system.
Orbit Viewer

Additional Notes: the orbits shown in the applet are color coded. The planets are white lines, and the asteroid/comet is a blue line. The bright white line indicates the portion of the orbit that is above the ecliptic plane, and the darker portion is below the ecliptic plane. Likewise for the asteroid/comet orbit, the light blue indicates the portion above the ecliptic plane, and the dark blue the portion below the ecliptic plane.

Orbit Viewer applet originally written and kindly provided by Osamu Ajiki (AstroArts), and further modified by Ron Baalke (JPL).


Orbital Elements at Epoch 2456400.5 (2013-Apr-18.0) TDB
Reference: JPL 45 (heliocentric ecliptic J2000)
 Element Value Uncertainty (1-sigma)   Units 
e .6651055483351397 3.0628e-08  
a 2.842630459228242 5.3221e-08 AU
q .9519811689290721 7.6897e-08 AU
i 1.980804849918521 1.3895e-05 deg
node 58.01300119012088 0.00014945 deg
peri 238.0670440467321 0.00015304 deg
M 237.4739795506961 3.8562e-05 deg
tp 2456996.305985958131
(2014-Dec-04.80598596)
0.00020408 JED
period 1750.568198970226
4.79
4.9163e-05
1.346e-07
d
yr
n .2056475150249905 5.7754e-09 deg/d
Q 4.733279749527411 8.8619e-08 AU
  Orbit Determination Parameters
   # obs. used (total)      174  
   # delay obs. used      0  
   # Doppler obs. used      10  
   data-arc span      5288 days (14.48 yr)  
   first obs. used      1986-05-04  
   last obs. used      2000-10-25  
   planetary ephem.      DE405  
   SB-pert. ephem.      SB405-CPV-2  
   condition code      0  
   fit RMS      .71203  
   data source      ORB  
   producer      Otto Matic  
   solution date      2013-Apr-29 15:37:55  

Additional Information
 Earth MOID = .0150855 AU 
 T_jup = 2.934 
[ show covariance matrix ]

Ephemeris | Orbit Diagram | Orbital Elements | Physical Parameters | Discovery Circumstances | Close-Approach Data ]

Physical Parameter Table
Parameter Symbol Value Units Sigma Reference Notes
absolute magnitude H 18.3 mag n/a PDS3 (MPO 12)  
diameter diameter 0.9 km n/a Hazards due to Comets and Asteroids (1994), Ed. T. Gehrels, pp.540-543 based on assumed dark albedo (0.06)
B-V BV .684 mag .020 EAR-A-5-DDR-UBV-MEAN-VALUES-V1.1 #obs=1; phase=4.74 deg.
U-B UB .492 mag .039 EAR-A-5-DDR-UBV-MEAN-VALUES-V1.1 #obs=1; phase=4.74 deg.

14827 Hypnos           Discovered 1986 May 5 by C. S. Shoemaker and E. M. Shoemaker at Palomar.
Hypnos was the Greek god of sleep and twin brother of death. He entered the sleep of mortals and gave them, at the bidding of the Olympians, dreams of foolishness or inspiration, depending on the individual and their divine protectors or enemies.
NOTE: some special characters may not display properly (any characters within {} are an attempt to place the proper accent above a character)
Reference: 20030106/MPCPages.arcLast Updated: 2003-10-02

[ show close-approach data ]
Ephemeris | Orbit Diagram | Orbital Elements | Physical Parameters | Discovery Circumstances | Close-Approach Data ]
ABOUT SSD CREDITS/AWARDS PRIVACY/COPYRIGHT GLOSSARY LINKS
FirstGov 2013-May-18 14:33 UT
(server date/time)  
NASA Home Page
Site Manager:   Donald K. Yeomans
Webmaster  Alan B. Chamberlin